TimeCST,TemperatureF,Dew PointF,Humidity,Sea Level PressureIn,VisibilityMPH,Wind Direction,Wind SpeedMPH,Gust SpeedMPH,PrecipitationIn,Events,Conditions,WindDirDegrees,DateUTC
12:15 AM,64.4,59.0,83,30.12,10.0,SE,11.5,26.5,N/A,,Overcast,140,2013-01-11 06:15:00
12:35 AM,64.4,59.0,83,30.12,10.0,SE,13.8,25.3,N/A,,Overcast,140,2013-01-11 06:35:00
12:55 AM,64.4,60.8,88,30.14,10.0,SSE,16.1,21.9,N/A,,Overcast,150,2013-01-11 06:55:00
1:15 AM,64.4,59.0,83,30.12,10.0,Calm,Calm,-,N/A,,Overcast,0,2013-01-11 07:15:00
1:35 AM,64.4,59.0,83,30.10,10.0,SSE,23.0,28.8,N/A,,Overcast,150,2013-01-11 07:35:00
1:55 AM,64.4,59.0,83,30.12,10.0,SSE,17.3,26.5,N/A,,Overcast,150,2013-01-11 07:55:00
2:15 AM,64.4,59.0,83,30.11,10.0,SSE,15.0,18.4,N/A,,Overcast,150,2013-01-11 08:15:00
2:35 AM,64.4,59.0,83,30.11,10.0,SSE,16.1,24.2,N/A,,Overcast,160,2013-01-11 08:35:00
2:55 AM,64.4,59.0,83,30.11,10.0,South,11.5,19.6,N/A,,Overcast,170,2013-01-11 08:55:00
3:15 AM,64.4,59.0,83,30.12,10.0,SSE,9.2,17.3,N/A,,Overcast,160,2013-01-11 09:15:00
3:35 AM,64.4,59.0,83,30.12,10.0,South,10.4,-,N/A,,Overcast,170,2013-01-11 09:35:00
3:55 AM,64.4,59.0,83,30.12,10.0,South,11.5,-,N/A,,Overcast,170,2013-01-11 09:55:00
4:15 AM,64.4,59.0,83,30.13,10.0,South,9.2,-,N/A,,Overcast,190,2013-01-11 10:15:00
4:35 AM,64.4,59.0,83,30.13,10.0,South,8.1,-,N/A,,Overcast,180,2013-01-11 10:35:00
4:55 AM,64.4,59.0,83,30.13,10.0,SSE,6.9,-,N/A,,Overcast,160,2013-01-11 10:55:00
5:15 AM,64.4,59.0,83,30.14,10.0,SSE,6.9,-,N/A,,Overcast,160,2013-01-11 11:15:00
5:35 AM,64.4,59.0,83,30.13,10.0,SE,9.2,-,N/A,,Overcast,140,2013-01-11 11:35:00
5:55 AM,64.4,59.0,83,30.14,10.0,SSE,8.1,-,N/A,,Mostly Cloudy,150,2013-01-11 11:55:00
6:35 AM,62.6,59.0,88,30.14,10.0,SSE,5.8,-,N/A,,Mostly Cloudy,150,2013-01-11 12:35:00
6:55 AM,62.6,59.0,88,30.15,9.0,SSE,8.1,-,N/A,,Scattered Clouds,160,2013-01-11 12:55:00
7:15 AM,62.6,59.0,88,30.16,10.0,SSE,9.2,-,N/A,,Overcast,160,2013-01-11 13:15:00
7:35 AM,62.6,59.0,88,30.17,10.0,SSE,9.2,-,N/A,,Overcast,160,2013-01-11 13:35:00
7:55 AM,64.4,59.0,83,30.18,10.0,SSE,8.1,-,N/A,,Overcast,160,2013-01-11 13:55:00
8:15 AM,64.4,59.0,83,30.18,10.0,SSE,9.2,-,N/A,,Overcast,160,2013-01-11 14:15:00
8:35 AM,64.4,59.0,83,30.18,10.0,SSE,8.1,-,N/A,,Overcast,160,2013-01-11 14:35:00
8:55 AM,64.4,59.0,83,30.18,10.0,SSE,8.1,-,N/A,,Overcast,150,2013-01-11 14:55:00
9:36 AM,64.4,59.0,83,30.20,10.0,SSE,10.4,-,N/A,,Overcast,160,2013-01-11 15:36:00
9:55 AM,64.4,60.8,88,30.20,10.0,SSE,8.1,-,N/A,,Overcast,160,2013-01-11 15:55:00
10:15 AM,64.4,60.8,88,30.18,10.0,SSE,13.8,-,N/A,,Overcast,160,2013-01-11 16:15:00
10:35 AM,64.4,60.8,88,30.18,10.0,SSE,11.5,17.3,N/A,,Overcast,160,2013-01-11 16:35:00
10:55 AM,66.2,60.8,83,30.17,10.0,South,11.5,-,N/A,,Overcast,170,2013-01-11 16:55:00
11:15 AM,66.2,60.8,83,30.16,10.0,South,16.1,19.6,N/A,,Overcast,170,2013-01-11 17:15:00
11:35 AM,66.2,60.8,83,30.15,10.0,Calm,Calm,-,N/A,,Overcast,0,2013-01-11 17:35:00
11:55 AM,66.2,60.8,83,30.14,10.0,Calm,Calm,-,N/A,,Overcast,0,2013-01-11 17:55:00
12:15 PM,68.0,60.8,78,30.13,10.0,Calm,Calm,-,N/A,,Overcast,0,2013-01-11 18:15:00
12:35 PM,69.8,62.6,78,30.12,10.0,South,9.2,-,N/A,,Overcast,190,2013-01-11 18:35:00
12:55 PM,69.8,62.6,78,30.11,10.0,South,8.1,-,N/A,,Overcast,170,2013-01-11 18:55:00
1:15 PM,71.6,62.6,73,30.11,10.0,South,11.5,-,N/A,,Overcast,180,2013-01-11 19:15:00
1:35 PM,71.6,62.6,73,30.10,10.0,South,13.8,18.4,N/A,,Overcast,190,2013-01-11 19:35:00
2:15 PM,73.4,62.6,69,30.10,10.0,South,13.8,-,N/A,,Mostly Cloudy,180,2013-01-11 20:15:00
2:35 PM,73.4,62.6,69,30.10,10.0,South,12.7,-,N/A,,Mostly Cloudy,180,2013-01-11 20:35:00
2:55 PM,73.4,60.8,65,30.10,10.0,South,12.7,-,N/A,,Overcast,180,2013-01-11 20:55:00
3:15 PM,73.4,60.8,65,30.10,10.0,South,12.7,19.6,N/A,,Mostly Cloudy,190,2013-01-11 21:15:00
3:35 PM,73.4,60.8,65,30.10,10.0,South,11.5,-,N/A,,Overcast,170,2013-01-11 21:35:00
3:55 PM,73.4,60.8,65,30.09,10.0,South,11.5,18.4,N/A,,Mostly Cloudy,170,2013-01-11 21:55:00
4:15 PM,73.4,60.8,65,30.10,10.0,SSE,11.5,-,N/A,,Partly Cloudy,160,2013-01-11 22:15:00
4:35 PM,71.6,60.8,69,30.10,10.0,South,9.2,-,N/A,,Scattered Clouds,170,2013-01-11 22:35:00
4:55 PM,71.6,60.8,69,30.10,10.0,South,8.1,-,N/A,,Partly Cloudy,170,2013-01-11 22:55:00
5:15 PM,69.8,60.8,73,30.11,10.0,South,5.8,-,N/A,,Mostly Cloudy,180,2013-01-11 23:15:00
5:35 PM,68.0,59.0,73,30.11,10.0,South,5.8,-,N/A,,Scattered Clouds,170,2013-01-11 23:35:00
5:55 PM,68.0,60.8,78,30.11,10.0,South,4.6,-,N/A,,Partly Cloudy,170,2013-01-11 23:55:00
6:15 PM,66.2,59.0,78,30.12,10.0,SSE,5.8,-,N/A,,Partly Cloudy,160,2013-01-12 00:15:00
6:35 PM,66.2,60.8,83,30.12,10.0,Calm,Calm,-,N/A,,Mostly Cloudy,0,2013-01-12 00:35:00
6:55 PM,66.2,60.8,83,30.13,10.0,Calm,Calm,-,N/A,,Overcast,0,2013-01-12 00:55:00
7:15 PM,66.2,60.8,83,30.13,10.0,Calm,Calm,-,N/A,,Overcast,0,2013-01-12 01:15:00
7:35 PM,66.2,60.8,83,30.13,10.0,Calm,Calm,-,N/A,,Overcast,0,2013-01-12 01:35:00
7:55 PM,66.2,60.8,83,30.13,10.0,Calm,Calm,-,N/A,,Mostly Cloudy,0,2013-01-12 01:55:00
8:15 PM,66.2,59.0,78,30.13,10.0,Calm,Calm,-,N/A,,Partly Cloudy,0,2013-01-12 02:15:00
8:35 PM,66.2,59.0,78,30.13,10.0,Calm,Calm,-,N/A,,Clear,0,2013-01-12 02:35:00
8:55 PM,66.2,59.0,78,30.13,10.0,South,8.1,-,N/A,,Clear,170,2013-01-12 02:55:00
9:15 PM,66.2,59.0,78,30.13,10.0,South,9.2,-,N/A,,Clear,170,2013-01-12 03:15:00
9:35 PM,66.2,59.0,78,30.13,10.0,South,10.4,-,N/A,,Clear,170,2013-01-12 03:35:00
9:55 PM,64.4,59.0,83,30.14,10.0,Calm,Calm,-,N/A,,Clear,0,2013-01-12 03:55:00
10:15 PM,64.4,59.0,83,30.13,10.0,South,8.1,-,N/A,,Clear,170,2013-01-12 04:15:00
10:35 PM,64.4,59.0,83,30.13,10.0,South,8.1,-,N/A,,Clear,170,2013-01-12 04:35:00
10:55 PM,64.4,59.0,83,30.13,10.0,South,10.4,-,N/A,,Clear,180,2013-01-12 04:55:00
11:15 PM,64.4,59.0,83,30.13,10.0,South,9.2,-,N/A,,Clear,180,2013-01-12 05:15:00
11:35 PM,64.4,59.0,83,30.13,10.0,South,10.4,-,N/A,,Clear,180,2013-01-12 05:35:00
11:55 PM,64.4,59.0,83,30.13,10.0,South,9.2,-,N/A,,Clear,190,2013-01-12 05:55:00